Weather History for Cloquet, MN

Change the Weather History Date:

Thursday, July 4, 2013

  Actual Average Record
Temperature  
Mean Temperature 66 °F -  
Max Temperature 84 °F 72 °F 84 °F (2011)
Min Temperature 48 °F 51 °F 42 °F (2008)
Cooling Degree Days 1    
Growing Degree Days 16 (Base 50)    
Moisture  
Dew Point 53 °F    
Average Humidity 60    
Maximum Humidity 93    
Minimum Humidity 37    
Precipitation  
Precipitation 0.00 in - - ()
Sea Level Pressure  
Sea Level Pressure 29.92 in    
Wind  
Wind Speed 3 mph (South)    
Max Wind Speed 14 mph    
Max Gust Speed 21 mph    
Visibility 10 miles    
Events      
Averages and records for this station are not official NWS values.
T = Trace of Precipitation, MM = Missing Value Source: NWS Daily Summary

Daily Weather History Graph

Daily Weather History Graph

Search for Another Location

Airport:

Trip Planner

Search our weather history database for the weather conditions in past years. The results will help you decide how hot, cold, wet, or windy it might be!

Date:

Astronomy

Jul. 04, 2013 Rise Set
Actual Time 5:22 AM CDT 9:06 PM CDT
Civil Twilight 4:43 AM CDT 9:45 PM CDT
Nautical Twilight 3:50 AM CDT 10:37 PM CDT
Astronomical Twilight 2:36 AM CDT 11:50 PM CDT
Moon 2:44 AM CDT (7/4) 6:06 PM CDT (7/4)
Length of Visible Light 17h 01m
Length of Day
15h 44m
Waning Crescent, 11% of the Moon is Illuminated
Jul 4
Waning Crescent
Jul 8
New
Jul 15
First Quarter
Jul 22
Full
Jul 29
Last Quarter

Hourly Weather History & Observations

Time (CDT) Temp. Heat Index Dew Point Humidity Pressure Visibility Wind Dir Wind Speed Gust Speed Precip Events Conditions
12:15 AM 53.6 °F - 46.4 °F 77% 29.98 in 10.0 mi Calm Calm - N/A   Clear
12:36 AM 53.6 °F - 46.4 °F 77% 29.98 in 10.0 mi Calm Calm - N/A   Clear
12:56 AM 53.6 °F - 46.4 °F 77% 29.98 in 10.0 mi SE 3.5 mph - N/A   Clear
1:16 AM 51.8 °F - 46.4 °F 82% 29.98 in 10.0 mi Calm Calm - N/A   Clear
1:36 AM 53.6 °F - 44.6 °F 72% 29.97 in 10.0 mi Calm Calm - N/A   Clear
1:56 AM 53.6 °F - 44.6 °F 72% 29.98 in 10.0 mi SE 4.6 mph - N/A   Clear
2:16 AM 51.8 °F - 44.6 °F 76% 29.97 in 10.0 mi Calm Calm - N/A   Clear
2:36 AM 51.8 °F - 44.6 °F 76% 29.97 in 10.0 mi Calm Calm - N/A   Clear
2:56 AM 50.0 °F - 44.6 °F 82% 29.97 in 10.0 mi Calm Calm - N/A   Clear
3:16 AM 50.0 °F - 44.6 °F 82% 29.97 in 10.0 mi Calm Calm - N/A   Clear
3:36 AM 50.0 °F - 44.6 °F 82% 29.97 in 10.0 mi Calm Calm - N/A   Clear
3:55 AM 48.2 °F - 44.6 °F 87% 29.97 in 10.0 mi Calm Calm - N/A   Clear
4:16 AM 50.0 °F - 46.4 °F 87% 29.96 in 10.0 mi Calm Calm - N/A   Clear
4:36 AM 48.2 °F - 46.4 °F 93% 29.96 in 10.0 mi Calm Calm - N/A   Clear
4:55 AM 48.2 °F - 44.6 °F 87% 29.96 in 10.0 mi Calm Calm - N/A   Clear
5:16 AM 51.8 °F - 46.4 °F 82% 29.96 in 10.0 mi Calm Calm - N/A   Clear
5:36 AM 50.0 °F - 46.4 °F 87% 29.96 in 10.0 mi Calm Calm - N/A   Clear
5:55 AM 50.0 °F - 46.4 °F 87% 29.97 in 10.0 mi Calm Calm - N/A   Clear
6:16 AM 51.8 °F - 48.2 °F 88% 29.96 in 10.0 mi Calm Calm - N/A   Clear
6:36 AM 53.6 °F - 48.2 °F 82% 29.96 in 10.0 mi Calm Calm - N/A   Clear
6:56 AM 55.4 °F - 48.2 °F 77% 29.97 in 10.0 mi Calm Calm - N/A   Clear
7:16 AM 57.2 °F - 51.8 °F 82% 29.97 in 10.0 mi Calm Calm - N/A   Clear
7:36 AM 59.0 °F - 51.8 °F 77% 29.97 in 10.0 mi Calm Calm - N/A   Clear
7:55 AM 60.8 °F - 53.6 °F 77% 29.97 in 10.0 mi SSE 3.5 mph - N/A   Clear
8:16 AM 62.6 °F - 55.4 °F 77% 29.97 in 10.0 mi South 4.6 mph - N/A   Clear
8:36 AM 64.4 °F - 55.4 °F 73% 29.96 in 10.0 mi South 3.5 mph - N/A   Clear
8:56 AM 66.2 °F - 55.4 °F 68% 29.96 in 10.0 mi South 5.8 mph - N/A   Clear
9:16 AM 68.0 °F - 55.4 °F 64% 29.95 in 10.0 mi SSE 3.5 mph - N/A   Clear
9:36 AM 69.8 °F - 55.4 °F 60% 29.95 in 10.0 mi Calm Calm - N/A   Clear
9:56 AM 71.6 °F - 55.4 °F 57% 29.95 in 10.0 mi SSW 5.8 mph - N/A   Clear
10:16 AM 73.4 °F - 55.4 °F 53% 29.94 in 10.0 mi Calm Calm - N/A   Clear
10:36 AM 75.2 °F - 55.4 °F 50% 29.94 in 10.0 mi SSE 5.8 mph - N/A   Clear
10:55 AM 75.2 °F - 55.4 °F 50% 29.94 in 10.0 mi South 5.8 mph - N/A   Clear
11:16 AM 77.0 °F - 55.4 °F 47% 29.93 in 10.0 mi SSE 6.9 mph - N/A   Clear
11:36 AM 77.0 °F - 57.2 °F 50% 29.93 in 10.0 mi SE 8.1 mph - N/A   Clear
11:55 AM 78.8 °F - 53.6 °F 42% 29.92 in 10.0 mi SSE 10.4 mph - N/A   Clear
12:16 PM 78.8 °F - 55.4 °F 44% 29.92 in 10.0 mi South 9.2 mph - N/A   Clear
12:36 PM 80.6 °F 80.3 °F 53.6 °F 39% 29.92 in 10.0 mi SSE 9.2 mph - N/A   Clear
12:55 PM 80.6 °F 80.5 °F 55.4 °F 42% 29.92 in 10.0 mi South 9.2 mph - N/A   Clear
1:16 PM 80.6 °F 80.5 °F 55.4 °F 42% 29.91 in 10.0 mi SSW 6.9 mph - N/A   Clear
1:36 PM 80.6 °F 80.8 °F 57.2 °F 45% 29.91 in 10.0 mi SSE 5.8 mph - N/A   Clear
1:56 PM 82.4 °F 82.0 °F 57.2 °F 42% 29.90 in 10.0 mi SSE 9.2 mph - N/A   Clear
2:16 PM 82.4 °F 81.7 °F 55.4 °F 39% 29.90 in 10.0 mi SSW 12.7 mph 17.3 mph N/A   Clear
2:36 PM 82.4 °F 82.0 °F 57.2 °F 42% 29.89 in 10.0 mi South 9.2 mph - N/A   Clear
2:55 PM 82.4 °F 81.7 °F 55.4 °F 39% 29.89 in 10.0 mi South 9.2 mph 17.3 mph N/A   Scattered Clouds
3:16 PM 84.2 °F 83.0 °F 55.4 °F 37% 29.89 in 10.0 mi SSW 11.5 mph 20.7 mph N/A   Clear
3:36 PM 84.2 °F 83.0 °F 55.4 °F 37% 29.89 in 10.0 mi SSW 11.5 mph - N/A   Scattered Clouds
3:55 PM 82.4 °F 81.7 °F 55.4 °F 39% 29.89 in 10.0 mi South 9.2 mph 18.4 mph N/A   Scattered Clouds
4:16 PM 82.4 °F 81.7 °F 55.4 °F 39% 29.89 in 10.0 mi South 10.4 mph - N/A   Scattered Clouds
4:36 PM 82.4 °F 81.4 °F 53.6 °F 37% 29.88 in 10.0 mi South 12.7 mph - N/A   Clear
4:55 PM 82.4 °F 81.7 °F 55.4 °F 39% 29.88 in 10.0 mi SSW 13.8 mph 19.6 mph N/A   Scattered Clouds
5:15 PM 82.4 °F 81.4 °F 53.6 °F 37% 29.88 in 10.0 mi SSW 11.5 mph - N/A   Scattered Clouds
5:36 PM 82.4 °F 81.4 °F 53.6 °F 37% 29.88 in 10.0 mi South 13.8 mph 20.7 mph N/A   Clear
5:56 PM 82.4 °F 81.7 °F 55.4 °F 39% 29.88 in 10.0 mi SSW 10.4 mph - N/A   Clear
6:16 PM 82.4 °F 81.4 °F 53.6 °F 37% 29.88 in 10.0 mi South 13.8 mph 18.4 mph N/A   Clear
6:36 PM 82.4 °F 81.4 °F 53.6 °F 37% 29.88 in 10.0 mi SSW 11.5 mph - N/A   Clear
6:56 PM 82.4 °F 81.7 °F 55.4 °F 39% 29.87 in 10.0 mi South 10.4 mph - N/A   Clear
7:16 PM 80.6 °F 80.5 °F 55.4 °F 42% 29.87 in 10.0 mi South 8.1 mph - N/A   Clear
7:36 PM 80.6 °F 80.5 °F 55.4 °F 42% 29.88 in 10.0 mi South 5.8 mph - N/A   Clear
7:55 PM 78.8 °F - 55.4 °F 44% 29.88 in 10.0 mi South 3.5 mph - N/A   Clear
8:16 PM 78.8 °F - 57.2 °F 47% 29.87 in 10.0 mi SSE 3.5 mph - N/A   Clear
8:36 PM 77.0 °F - 57.2 °F 50% 29.87 in 10.0 mi SSE 3.5 mph - N/A   Clear
8:55 PM 75.2 °F - 57.2 °F 53% 29.87 in 10.0 mi SSE 4.6 mph - N/A   Clear
9:16 PM 75.2 °F - 57.2 °F 53% 29.87 in 10.0 mi SSE 3.5 mph - N/A   Clear
9:36 PM 73.4 °F - 57.2 °F 57% 29.88 in 10.0 mi SSE 3.5 mph - N/A   Clear
9:55 PM 71.6 °F - 57.2 °F 60% 29.89 in 10.0 mi Calm Calm - N/A   Clear
10:16 PM 69.8 °F - 57.2 °F 64% 29.89 in 10.0 mi ESE 3.5 mph - N/A   Clear
10:36 PM 68.0 °F - 57.2 °F 68% 29.89 in 10.0 mi ESE 3.5 mph - N/A   Clear
10:55 PM 68.0 °F - 57.2 °F 68% 29.89 in 10.0 mi ESE 3.5 mph - N/A   Clear
11:16 PM 66.2 °F - 57.2 °F 73% 29.89 in 10.0 mi ESE 3.5 mph - N/A   Clear
11:36 PM 64.4 °F - 57.2 °F 77% 29.89 in 10.0 mi Calm Calm - N/A   Clear
11:55 PM 64.4 °F - 57.2 °F 77% 29.89 in 10.0 mi Calm Calm - N/A   Clear